EHI
0 0 0 0 0 0 0 0 0 0 0 0 0 0 0 0 0 0 0 0 0 0 0 0 0 0 0 0 0 0 0 0 0 0 0 0 0 0 0 0 0 0 0 0
0 0 0 0 0 0 0 0 0 0 0 0 0 0 0 0 0 0 0 0 0 0 0 0 0 0 0 0 0 0 0 0 0 0 0 0 0 0 0 0 0 0 0 0
0 0 0 0 0 0 0 0 0 0 0 0 0 0 0 0 0 0 0 0 0 0 0 0 0 0 0 0 0 0 0 0 0 0 0 0 0 0 0 0 0 0 0 0
0 0 0 0 0 0 0 0 0 0 0 0 0 0 0 0 0 0 0 0 0 0 0 0 0 0 0 0 0 0 0 0 0 0 0 0 0 0 0 0 0 0 0 0
0 0 0 0 0 0 0 0 0 0 0 0 0 0 0 0 0 0 0 0 0 0 0 0 0 0 0 0 0 0 0 0 0 0 0 0 0 0 0 0 0 0 0 0
0 0 0 0 0 0 0 0 0 0 0 0 0 0 0 0 0 0 0 0 0 0 0 0 0 0 0 0 0 0 0 0 0 0 0 0 0 0 0 0 0 0 0 0
0 0 0 0 0 0 0 0 0 0 0 0 0 0 0 0 0 0 0 0 0 0 0 0 0 0 0 0 0 0 0 0 0 0 0 0 0 0 0 0 0 0 0 0
0 0 0 0 0 0 0 0 0 0 0 0 0 0 0 0 0 0 0 0 0 0 0 0 0 0 0 0 0 0 0 0 0 0 0 0 0 0 0 0 0 0 0 0
0 0 0 0 0 0 0 0 0 0 0 0 0 0 0 0 0 0 0 0 0 0 0 0 0 0 0 0 0 0 0 0 0 0 0 0 0 0 0 0 0 0 0 0
0 0 0 0 0 0 0 0 0 0 0 0 0 0 0 0 0 0 0 0 0 0 0 0 0 0 0 0 0 0 0 0 0 0 0 0 0 0 0 0 0 0 0 0
0 0 0 0 0 0 0 0 0 0 0 0 0 0 0 0 0 0 0 0 0 0 0 0 0 0 0 0 0 0 0 0 0 0 0 0 0 0 0 0 0 0 0 0
0 0 0 0 0 0 0 0 0 0 0 0 0 0 0 0 0 0 0 0 0 0 0 0 0 0 0 0 0 0 0 0 0 0 0 0 0 0 0 0 0 0 0 0
0 0 0 0 0 0 0 0 0 0 0 0 0 0 0 0 0 0 0 0 0 0 0 0 0 0 0 0 0 0 0 0 0 0 0 0 0 0 0 0 0 0 0 0
0 0 0 0 0 0 0 0 0 0 0 0 0 0 0 0 0 0 0 0 0 0 0 0 0 0 0 0 0 0 0 0 0 0 0 0 0 0 0 0 0 0 0 0
0 0 0 0 0 0 0 0 0 0 0 0 0 0 0 0 0 0 0 0 0 0 0 0 0 0 0 0 0 0 0 0 0 0 0 0 0 0 0 0 0 0 0 0
0 0 0 0 0 0 0 0 0 0 0 0 0 0 0 0 0 0 0 0 0 0 0 0 0 0 0 0 0 0 0 0 0 0 0 0 0 0 0 0 0 0 0 0
0 0 0 0 0 0 0 0 0 0 0 0 0 0 0 0 0 0 0 0 0 0 0 0 0 0 0 0 0 0 0 0 0 0 0 0 0 0 0 0 0 0 0 0
0 0 0 0 0 0 0 0 0 0 0 0 0 0 0 0 0 0 0 0 0 0 0 0 0 0 0 0 0 0 0 0 0 0 0 0 0 0 0 0 0 0 0 0
0 0 0 0 0 0 0 0 0 0 0 0 0 0 0 0 0 0 0 0 0 0 0 0 0 0 0 0 0 0 0 0 0 0 0 0 0 0 0 0 0 0 0 0
0 0 0 0 0 0 0 0 0 0 0 0 0 0 0 0 0 0 0 0 0 0 0 0 0 0 0 0 0 0 0 0 0 0 0 0 0 0 0 0 0 0 0 0
0 0 0 0 0 0 0 0 0 0 0 0 0 0 0 0 0 0 0 0 0 0 0 0 0 0 0 0 0 0 0 0 0 0 0 0 0 0 0 0 0 0 0 0
0 0 0 0 0 0 0 0 0 0 0 0 0 0 0 0 0 0 0 0 0 0 0 0 0 0 0 0 0 0 0 0 0 0 0 0 0 0 0 0 0 0 0 0
0 0 0 0 0 0 0 0 0 0 0 0 0 0 0 0 0 0 0 0 0 0 0 0 0 0 0 0 0 0 0 0 0 0 0 0 0 0 0 0 0 0 0 0
0 0 0 0 0 0 0 0 0 0 0 0 0 0 0 0 0 0 0 0 0 0 0 0 0 0 0 0 0 0 0 0 0 0 0 0 0 0 0 0 0 0 0 0
0 0 0 0 0 0 0 0 0 0 0 0 0 0 0 0 0 0 0 0 0 0 0 0 0 0 0 0 0 0 0 0 0 0 0 0 0 0 0 0 0 0 0 0
0 0 0 0 0 0 0 0 0 0 0 0 0 0 0 0 0 0 0 0 0 0 0 0 0 0 0 0 0 0 0 0 0 0 0 0 0 0 0 0 0 0 0 0
0 0 0 0 0 0 0 0 0 0 0 0 0 0 0 0 0 0 0 0 0 0 0 0 0 0 0 0 0 0 0 0 0 0 0 0 0 0 0 0 0 0 0 0
Wind_Speed
1 1 2 3 3 4 3 2 3 5 5 5 3 4 6 7 8 8 9 9 9 9 9 9 10 10 9 10 10 10 9 10 11 12 11 11 10 10 10 10 11 10 9 9
3 3 4 3 3 3 2 1 2 3 5 4 4 4 6 8 9 9 10 10 10 11 11 11 11 10 10 10 11 9 10 11 11 11 11 11 11 11 10 10 10 9 9 10
1 1 3 2 2 1 2 3 3 5 6 4 6 7 8 8 9 10 11 11 11 11 11 11 11 11 11 11 10 10 11 12 11 11 11 11 11 10 10 10 10 10 10 9
2 2 3 5 2 2 3 5 4 5 5 6 9 8 8 9 8 10 10 10 11 10 11 11 11 11 11 11 11 11 11 12 11 11 11 11 10 10 10 9 9 9 10 10
3 1 4 2 2 2 3 7 4 5 7 7 7 6 7 7 6 8 10 10 10 11 12 11 12 12 11 12 12 12 12 12 11 10 11 11 11 10 9 8 9 9 8 9
3 1 4 5 2 0 1 6 3 4 7 7 5 5 8 6 7 9 10 9 10 11 12 12 13 11 11 13 12 13 13 12 12 11 11 12 11 11 9 8 9 9 9 9
3 2 6 5 1 2 1 6 3 4 6 5 5 8 9 9 9 9 10 12 12 12 12 13 13 12 12 13 14 14 13 12 12 12 12 12 11 10 9 8 8 8 9 8
3 1 6 2 3 4 7 4 3 4 5 6 7 9 9 9 9 10 11 11 12 11 13 13 12 12 13 14 14 13 13 13 12 12 12 11 9 8 8 8 8 8 8 7
7 7 5 3 5 4 4 3 3 4 5 5 6 7 8 8 9 10 11 11 11 12 14 13 12 12 14 14 13 14 13 13 12 12 10 9 8 8 6 6 6 6 6 6
2 5 4 4 3 2 3 3 3 4 5 4 6 8 9 9 9 10 10 12 11 13 14 15 14 14 13 13 13 13 13 12 10 10 9 8 6 5 5 5 5 5 5 5
4 5 2 4 5 3 2 2 2 3 3 4 5 7 8 8 10 10 11 10 11 12 14 16 15 15 14 13 12 13 12 11 9 8 7 6 5 5 5 5 5 5 5 5
7 7 6 6 4 3 3 3 3 3 4 5 4 7 8 9 9 10 12 12 13 14 15 16 15 15 14 12 12 12 10 9 7 6 6 5 5 4 5 7 7 9 9 6
5 4 5 3 2 3 2 2 2 2 4 6 6 6 7 8 8 10 12 13 14 15 15 15 15 15 14 13 12 12 11 10 7 6 5 5 4 4 3 3 4 5 6 6
4 5 3 3 3 2 2 1 1 3 4 5 6 7 7 8 10 12 13 13 14 14 15 14 15 14 14 13 12 11 10 10 8 5 5 4 4 3 2 2 2 1 1 2
5 5 5 4 3 2 1 0 2 4 5 6 6 7 8 9 11 13 13 13 13 14 14 14 15 15 14 13 12 11 9 7 6 5 4 3 3 2 2 1 1 1 1 1
6 4 4 4 4 3 1 2 3 4 5 6 6 8 9 9 10 12 12 12 14 15 15 14 15 15 14 13 12 9 7 11 9 5 4 3 3 2 2 2 1 1 1 1
9 6 6 5 5 4 4 4 4 4 5 6 7 8 9 9 10 12 13 13 12 12 12 13 15 16 14 12 10 8 7 8 10 6 4 3 3 3 2 2 1 1 1 1
8 8 8 7 6 5 4 4 4 4 5 6 7 7 8 9 11 12 13 14 13 12 12 14 16 16 13 12 9 7 6 5 5 4 3 3 3 3 2 2 2 2 2 2
6 8 8 7 6 5 4 4 4 4 5 5 5 6 7 8 9 10 11 12 12 14 15 16 19 15 13 13 13 6 6 6 5 4 4 4 3 3 3 3 3 3 2 2
7 7 7 6 6 5 4 4 4 4 4 4 4 6 7 8 9 10 11 9 7 9 14 15 14 12 13 12 14 6 6 6 5 5 4 4 4 4 4 3 3 3 3 2
9 8 8 7 6 5 5 4 3 4 4 3 3 5 7 8 8 9 9 9 10 12 14 14 11 11 11 11 11 6 6 6 5 4 4 4 4 4 4 4 4 3 3 3
8 8 8 7 6 5 4 3 3 3 3 3 3 4 6 8 8 8 7 6 10 15 12 9 9 13 16 13 7 7 7 6 5 4 4 4 3 3 3 4 3 3 3 3
8 8 8 7 7 5 3 3 3 3 3 3 3 4 5 6 6 6 8 7 9 14 11 8 14 19 17 9 7 8 8 7 6 5 4 3 3 3 3 3 3 3 3 3
8 8 7 6 5 4 4 4 3 3 2 2 3 3 4 5 5 4 5 9 12 13 9 10 15 17 13 8 8 8 7 7 6 5 4 3 3 2 2 2 2 2 2 3
8 7 6 6 6 6 6 4 3 2 2 2 3 3 3 3 4 6 7 8 11 11 9 10 14 14 10 8 8 8 8 7 7 6 5 4 3 3 2 2 2 3 3 3
7 7 7 8 7 5 4 4 3 3 2 2 2 3 3 4 5 5 6 8 10 10 9 8 9 10 8 8 8 8 8 8 8 7 7 5 5 4 3 3 4 3 3 3
5 5 4 4 4 4 4 4 4 4 3 3 2 2 3 4 4 5 7 7 7 8 7 7 8 8 7 8 8 8 7 7 7 7 7 6 6 5 4 4 3 3 3 3
Wind_Direction
30 12 92 71 45 53 79 154 210 262 260 265 266 278 285 287 291 295 291 291 287 283 283 282 282 279 276 275 275 272 269 267 264 262 259 257 254 250 248 245 244 238 236 235
31 37 69 64 33 45 39 320 268 274 272 254 276 285 284 286 289 290 288 287 288 288 287 286 285 284 283 280 278 275 271 269 269 267 263 257 254 252 250 248 247 241 236 236
225 291 4 296 264 274 268 250 234 247 259 290 297 289 280 282 288 288 287 289 291 291 290 289 287 285 283 281 281 278 274 273 271 268 268 264 261 256 249 248 247 244 240 235
115 64 271 255 250 219 244 255 230 241 265 275 267 274 276 275 277 284 289 292 293 292 292 290 287 288 286 287 286 283 279 277 274 270 267 265 262 259 255 249 243 241 242 238
107 189 288 274 232 197 243 277 225 237 270 280 292 315 294 278 276 278 285 288 290 290 292 292 294 294 294 293 290 288 286 283 280 276 274 270 264 260 258 253 248 242 240 237
113 156 257 251 246 216 126 289 241 238 271 285 318 319 286 290 303 298 297 296 296 297 298 298 298 297 296 296 295 293 292 288 284 277 271 268 263 258 253 248 249 247 243 237
137 226 266 250 265 73 208 266 257 246 264 276 259 246 272 299 301 294 294 296 297 300 301 300 300 301 299 298 297 296 295 291 286 280 274 269 263 256 249 246 246 244 243 241
144 209 270 222 142 182 223 244 262 264 268 271 269 277 290 297 297 300 301 301 303 304 304 303 302 302 300 298 297 298 297 293 289 284 280 278 264 255 247 242 243 243 242 244
183 211 238 227 208 215 188 225 257 261 276 281 284 289 295 294 296 300 301 303 305 307 307 307 307 305 302 301 302 302 299 296 293 291 284 276 269 263 252 238 237 238 234 238
234 260 239 229 232 231 206 229 259 270 282 286 286 290 296 297 300 304 303 308 309 312 312 313 313 311 304 304 305 304 301 301 298 295 291 283 270 257 248 238 233 231 230 233
243 265 263 256 234 229 235 254 281 295 289 288 290 294 294 300 304 306 308 309 311 314 314 314 315 313 311 310 310 308 305 303 300 295 293 291 279 262 250 238 228 225 231 228
216 215 192 232 227 200 207 243 270 290 300 301 291 289 297 301 301 306 312 315 317 317 316 316 316 315 315 315 315 313 311 309 305 301 297 293 289 286 258 245 244 235 237 236
204 182 179 209 177 171 192 228 260 280 288 295 297 294 299 299 301 309 314 319 320 318 317 317 318 319 320 321 320 318 315 313 310 307 307 302 295 290 294 281 254 251 247 239
176 135 157 190 189 180 181 208 284 303 296 290 290 299 304 303 311 318 320 320 319 318 319 321 322 324 325 325 323 322 320 320 320 310 310 310 303 295 289 295 315 333 281 234
183 174 179 170 151 149 154 206 302 306 303 305 301 306 312 316 319 318 318 320 321 323 325 328 328 328 329 329 327 326 325 323 322 319 320 321 319 320 322 326 338 346 17 48
166 146 145 154 175 186 203 248 272 287 295 298 304 310 314 314 313 315 319 325 328 327 327 330 331 330 330 331 330 328 328 334 342 339 341 345 350 2 6 7 6 7 43 59
146 172 187 196 204 209 222 236 248 266 285 295 301 309 317 322 324 327 328 328 324 320 324 332 333 331 332 334 333 331 332 335 346 352 353 354 0 7 7 8 19 23 38 61
176 178 176 179 186 203 229 246 256 270 279 288 305 317 324 327 326 324 325 325 327 331 338 339 335 334 335 336 336 334 336 339 344 348 355 3 4 5 9 16 26 41 56 61
162 163 169 176 179 187 208 232 248 266 285 299 312 316 315 315 316 319 323 328 334 339 339 336 332 336 338 339 342 338 342 346 351 355 1 10 14 16 20 29 38 46 58 72
160 162 168 176 181 186 208 227 245 270 287 300 308 317 323 324 325 327 327 325 327 331 328 330 334 339 339 338 342 341 346 352 359 3 12 20 21 21 26 36 46 50 52 62
170 170 175 182 192 202 211 216 230 262 285 298 304 311 315 318 324 328 330 331 333 337 334 333 340 342 338 335 336 344 352 358 4 9 16 24 27 27 29 35 42 48 54 60
176 177 184 187 192 209 220 219 227 249 274 292 301 311 321 326 329 328 319 315 324 332 335 338 343 341 340 339 346 351 357 3 8 11 16 22 28 30 31 39 43 44 50 56
179 181 184 190 196 205 217 224 229 236 252 272 292 310 316 315 317 324 328 328 331 332 334 340 341 343 346 351 353 355 359 4 7 9 10 16 21 23 29 43 46 46 52 55
180 183 188 186 174 182 215 229 228 234 244 260 278 298 310 317 316 308 307 316 328 331 337 340 343 348 353 359 359 358 359 360 359 359 5 12 17 21 32 44 49 44 52 60
183 181 175 171 185 206 217 215 212 228 243 271 294 308 314 304 302 313 320 327 335 340 342 345 349 353 0 1 1 359 357 357 355 354 5 12 14 18 29 43 49 48 46 51
183 187 190 195 198 196 187 182 196 212 218 251 284 304 320 322 319 321 328 335 342 344 348 351 353 357 1 2 1 360 358 354 357 1 4 8 16 25 31 40 47 48 45 45
188 185 186 202 204 186 176 181 192 200 201 210 249 298 323 332 335 338 342 345 348 352 352 354 357 360 2 3 2 3 3 1 359 0 2 5 8 13 19 30 36 43 48 55